Weather History for KMJQ - March, 2013

Change the Weather History Date:

Sunday, March 10, 2013

  Actual Average Record
Temperature  
Mean Temperature 28 °F -  
Max Temperature 32 °F 32 °F 66 °F (2015)
Min Temperature 23 °F 18 °F -4 °F (1998)
Degree Days  
Heating Degree Days 38    
Moisture  
Dew Point 27 °F    
Average Humidity 93    
Maximum Humidity 100    
Minimum Humidity 86    
Precipitation  
Precipitation 0.00 in - - ()
Sea Level Pressure  
Sea Level Pressure 29.85 in    
Wind  
Wind Speed 18 mph (NNW)    
Max Wind Speed 26 mph    
Max Gust Speed 37 mph    
Visibility 3 miles    
Events Snow    
Averages and records for this station are not official NWS values.
T = Trace of Precipitation, MM = Missing Value Source: NWS Daily Summary

Daily Weather History Graph

Daily Weather History Graph

Search for Another Location

Airport or City:

Trip Planner

Search our weather history database for the weather conditions in past years. The results will help you decide how hot, cold, wet, or windy it might be!

Date:

Astronomy

Mar. 10, 2013 Rise Set
Actual Time 7:40 AM CDT 7:20 PM CDT
Civil Twilight 7:11 AM CDT 7:49 PM CDT
Nautical Twilight 6:38 AM CDT 8:22 PM CDT
Astronomical Twilight 6:05 AM CDT 8:55 PM CDT
Moon 6:42 AM CDT (3/10) 6:28 PM CDT (3/10)
Length of Visible Light 12h 37m
Length of Day
11h 39m
Waning Crescent, 2% of the Moon is Illuminated
Mar 10
Waning Crescent
Mar 11
New
Mar 19
First Quarter
Mar 27
Full
Apr 2
Last Quarter

Hourly Weather History & Observations

Time (CDT) Temp. Windchill Dew Point Humidity Pressure Visibility Wind Dir Wind Speed Gust Speed Precip Events Conditions
12:12 AM 32.0 °F 22.5 °F 32.0 °F 100% 29.75 in 0.8 mi North 12.7 mph - N/A Snow Snow
12:33 AM 32.0 °F 21.6 °F 32.0 °F 100% 29.76 in 2.5 mi NNW 15.0 mph 21.9 mph N/A Snow Light Snow
12:52 AM 32.0 °F 19.8 °F 30.2 °F 93% 29.78 in 2.0 mi NNW 20.7 mph 26.5 mph N/A Snow Light Snow
1:12 AM 32.0 °F 21.2 °F 30.2 °F 93% 29.78 in 2.0 mi North 16.1 mph 27.6 mph N/A Snow Light Snow
1:32 AM 32.0 °F 22.1 °F 30.2 °F 93% 29.78 in 2.0 mi North 13.8 mph 23.0 mph N/A Snow Light Snow
1:52 AM 32.0 °F 22.1 °F 30.2 °F 93% 29.78 in 3.0 mi North 13.8 mph 28.8 mph N/A   Overcast
3:13 AM 32.0 °F 22.1 °F 30.2 °F 93% 29.79 in 4.0 mi NNW 13.8 mph 24.2 mph N/A   Overcast
3:33 AM 32.0 °F 21.2 °F 30.2 °F 93% 29.76 in 3.0 mi North 16.1 mph 24.2 mph N/A   Overcast
3:52 AM 30.2 °F 18.9 °F 30.2 °F 100% 29.74 in 3.0 mi North 16.1 mph 26.5 mph N/A   Overcast
4:13 AM 32.0 °F 20.5 °F 30.2 °F 93% 29.76 in 4.0 mi North 18.4 mph 29.9 mph N/A   Overcast
4:32 AM 32.0 °F 21.2 °F 30.2 °F 93% 29.80 in 4.0 mi North 16.1 mph 25.3 mph N/A   Overcast
4:53 AM 30.2 °F 18.9 °F 30.2 °F 100% 29.79 in 4.0 mi NNW 16.1 mph 25.3 mph N/A   Overcast
5:13 AM 30.2 °F 18.1 °F 28.4 °F 93% 29.80 in 1.2 mi NNW 18.4 mph 28.8 mph N/A Snow Light Snow
5:32 AM 30.2 °F 18.1 °F 28.4 °F 93% 29.79 in - NNW 18.4 mph 29.9 mph N/A   Overcast
5:53 AM 30.2 °F 18.5 °F 28.4 °F 93% 29.84 in - North 17.3 mph 24.2 mph N/A   Overcast
6:12 AM 30.2 °F 19.3 °F 28.4 °F 93% 29.83 in 2.5 mi North 15.0 mph 24.2 mph N/A Snow Light Snow
7:32 AM 28.4 °F 16.2 °F 26.6 °F 93% 29.88 in 1.5 mi NNW 17.3 mph 29.9 mph N/A Snow Light Snow
7:53 AM 28.4 °F 14.7 °F 26.6 °F 93% 29.88 in 1.0 mi NNW 21.9 mph 33.4 mph N/A Snow Light Snow
8:12 AM 28.4 °F 14.4 °F 26.6 °F 93% 29.88 in 1.0 mi NNW 23.0 mph 31.1 mph N/A Snow Light Snow
8:32 AM 28.4 °F 16.2 °F 26.6 °F 93% 29.89 in 0.8 mi NNW 17.3 mph 28.8 mph N/A Snow Light Snow
8:53 AM 28.4 °F 15.1 °F 26.6 °F 93% 29.86 in - NNW 20.7 mph 28.8 mph N/A   Overcast
9:12 AM 28.4 °F 15.4 °F 26.6 °F 93% 29.88 in - NNW 19.6 mph 29.9 mph N/A   Overcast
9:32 AM 28.4 °F 16.2 °F 26.6 °F 93% 29.89 in - North 17.3 mph 31.1 mph N/A   Overcast
9:53 AM 28.4 °F 15.8 °F 26.6 °F 93% 29.88 in - North 18.4 mph 27.6 mph N/A   Overcast
10:12 AM 28.4 °F 15.8 °F 26.6 °F 93% 29.89 in - North 18.4 mph 26.5 mph N/A   Overcast
10:32 AM 28.4 °F 15.8 °F 26.6 °F 93% 29.91 in - North 18.4 mph 28.8 mph N/A   Overcast
10:53 AM 28.4 °F 16.2 °F 26.6 °F 93% 29.91 in - North 17.3 mph 25.3 mph N/A   Overcast
11:12 AM 28.4 °F 16.6 °F 26.6 °F 93% 29.90 in - North 16.1 mph 35.7 mph N/A   Overcast
11:32 AM 28.4 °F 15.8 °F 26.6 °F 93% 29.91 in - North 18.4 mph 25.3 mph N/A   Overcast
11:53 AM 28.4 °F 14.7 °F 26.6 °F 93% 29.90 in - North 21.9 mph 31.1 mph N/A   Overcast
12:12 PM 28.4 °F 15.8 °F 26.6 °F 93% 29.90 in - North 18.4 mph 27.6 mph N/A   Overcast
12:32 PM 28.4 °F 15.8 °F 26.6 °F 93% 29.89 in - North 18.4 mph 32.2 mph N/A   Overcast
12:53 PM 28.4 °F 14.7 °F 26.6 °F 93% 29.89 in - North 21.9 mph 29.9 mph N/A   Overcast
1:12 PM 28.4 °F 15.1 °F 26.6 °F 93% 29.88 in - North 20.7 mph 32.2 mph N/A   Overcast
1:33 PM 28.4 °F 15.8 °F 26.6 °F 93% 29.87 in 4.0 mi North 18.4 mph 26.5 mph N/A   Overcast
1:53 PM 28.4 °F 15.8 °F 26.6 °F 93% 29.88 in 2.5 mi North 18.4 mph 26.5 mph N/A   Overcast
2:12 PM 28.4 °F 15.4 °F 26.6 °F 93% 29.88 in 1.8 mi North 19.6 mph 26.5 mph N/A   Overcast
2:33 PM 28.4 °F 15.4 °F 26.6 °F 93% 29.87 in 2.0 mi North 19.6 mph 26.5 mph N/A   Overcast
2:53 PM 28.4 °F 14.7 °F 26.6 °F 93% 29.85 in 1.8 mi North 21.9 mph 33.4 mph N/A   Overcast
3:12 PM 28.4 °F 15.1 °F 26.6 °F 93% 29.84 in 3.0 mi North 20.7 mph 29.9 mph N/A   Overcast
3:33 PM 28.4 °F 15.4 °F 26.6 °F 93% 29.83 in 3.0 mi North 19.6 mph 31.1 mph N/A   Overcast
3:53 PM 28.4 °F 15.4 °F 26.6 °F 93% 29.84 in 4.0 mi North 19.6 mph 28.8 mph N/A   Overcast
4:12 PM 28.4 °F 15.4 °F 26.6 °F 93% 29.85 in 5.0 mi North 19.6 mph 32.2 mph N/A   Overcast
4:33 PM 28.4 °F 15.1 °F 26.6 °F 93% 29.86 in 7.0 mi North 20.7 mph 27.6 mph N/A   Overcast
4:53 PM 28.4 °F 15.8 °F 26.6 °F 93% 29.86 in 7.0 mi North 18.4 mph 25.3 mph N/A   Overcast
5:12 PM 28.4 °F 15.8 °F 26.6 °F 93% 29.87 in 7.0 mi North 18.4 mph 26.5 mph N/A   Overcast
5:33 PM 28.4 °F 14.7 °F 26.6 °F 93% 29.86 in 10.0 mi North 21.9 mph 27.6 mph N/A   Overcast
5:52 PM 28.4 °F 15.4 °F 26.6 °F 93% 29.87 in 7.0 mi North 19.6 mph 27.6 mph N/A Snow Light Snow
6:12 PM 28.4 °F 16.6 °F 26.6 °F 93% 29.87 in 1.0 mi North 16.1 mph 26.5 mph N/A Snow Light Snow
6:33 PM 28.4 °F 15.1 °F 26.6 °F 93% 29.87 in 0.5 mi North 20.7 mph 27.6 mph N/A Snow Snow
6:52 PM 28.4 °F 15.8 °F 26.6 °F 93% 29.87 in 0.5 mi North 18.4 mph 26.5 mph N/A Snow Light Snow
7:12 PM 28.4 °F 15.4 °F 24.8 °F 86% 29.88 in 0.5 mi North 19.6 mph 31.1 mph N/A Snow Light Snow
7:33 PM 28.4 °F 16.6 °F 24.8 °F 86% 29.89 in 1.2 mi North 16.1 mph 26.5 mph N/A Snow Light Snow
7:52 PM 28.4 °F 16.2 °F 24.8 °F 86% 29.90 in 1.0 mi North 17.3 mph 25.3 mph N/A Snow Light Snow
8:12 PM 28.4 °F 16.2 °F 24.8 °F 86% 29.90 in 1.2 mi NNW 17.3 mph 23.0 mph N/A Snow Light Snow
8:33 PM 26.6 °F 13.4 °F 24.8 °F 93% 29.89 in 1.0 mi North 18.4 mph 23.0 mph N/A Snow Light Snow
9:12 PM 26.6 °F 14.3 °F 23.0 °F 86% 29.88 in 1.0 mi NNW 16.1 mph 24.2 mph N/A Snow Light Snow
9:33 PM 26.6 °F 12.0 °F 23.0 °F 86% 29.88 in - NNW 23.0 mph 32.2 mph N/A   Overcast
9:52 PM 26.6 °F 12.0 °F 23.0 °F 86% 29.87 in - NNW 23.0 mph 31.1 mph N/A   Overcast
10:13 PM 24.8 °F 9.3 °F 23.0 °F 93% 29.86 in - NNW 24.2 mph 36.8 mph N/A   Unknown
10:32 PM 24.8 °F 8.7 °F 23.0 °F 93% 29.86 in - NNW 26.5 mph 34.5 mph N/A   Unknown
10:52 PM 24.8 °F 9.3 °F 23.0 °F 93% 29.86 in - NNW 24.2 mph 33.4 mph N/A   Unknown
11:13 PM 24.8 °F 9.6 °F 21.2 °F 86% 29.87 in - NNW 23.0 mph 29.9 mph N/A   Unknown
11:32 PM 23.0 °F 6.9 °F 21.2 °F 93% 29.87 in - NNW 24.2 mph 32.2 mph N/A   Unknown
12:13 AM 23.0 °F 8.3 °F 21.2 °F 93% 29.87 in - NNW 19.6 mph 27.6 mph N/A   Overcast
12:32 AM 23.0 °F 8.7 °F 21.2 °F 93% 29.86 in - NNW 18.4 mph 31.1 mph N/A   Unknown
12:53 AM 23.0 °F 7.6 °F 21.2 °F 93% 29.86 in - NNW 21.9 mph 27.6 mph N/A   Unknown